Location: Clyde
(45.1830°S, 169.3170°E)
Time: 10:08:00
(UTC+12:00)

Meteor 2-15 Rocket - Pass Details

Date: 14 May 2021
Orbit: 940 x 955 km, 82.5° (Epoch: 15 June)

Event Time Altitude Azimuth Distance (km) Brightness Sun altitude
Rises 18:32:07 0° 187° (S) 3,656 7.4 -11.9°
Reaches altitude 10° 18:34:40 10° 183° (S) 2,702 6.7 -12.4°
Maximum altitude 18:40:48 63° 102° (ESE) 1,059 4.4 -13.4°
Drops below altitude 10° 18:46:50 10° 21° (NNE) 2,662 6.7 -14.5°
Sets 18:49:20 0° 17° (NNE) 3,598 7.4 -14.9°
